Location: Nora Junction
(43.1400°N, 93.0163°W)
Time: 22:22:04
(UTC+00:00)

SL-8 R/B - Pass Details

Date: 18 November 2025
Orbit: 646 x 657 km, 48.4° (Epoch: 14 December)

Event Time Altitude Azimuth Distance (km) Brightness Sun altitude
Rises 12:15:32 0° 230° (SW) 2,967 6.7 -9.9°
Reaches altitude 10° 12:17:54 10° 227° (SW) 2,057 6.0 -9.5°
Maximum altitude 12:22:34 60° 148° (SSE) 747 4.3 -8.7°
Drops below altitude 10° 12:27:14 10° 69° (ENE) 2,059 7.0 -7.9°
Sets 12:29:36 0° 65° (ENE) 2,970 7.8 -7.5°
